CW9803 Weather Reports


Display with metric or nautical units.
time (UTC)temp
F
wind
direction
speed
MPH
gust
MPH
rain 1hr
in
rain 24hr
in
rain mn
in
humidity
%
barometer
mb
20260505204236 74 301 3.0 3.0 0.00 0.00 0.00 38 1008.7
20260505203732 74 336 3.0 3.0 0.00 0.00 0.00 37 1008.6
20260505203230 74 48 4.0 6.0 0.00 0.00 0.00 37 1008.8
20260505202725 72 43 2.0 2.0 0.00 0.00 0.00 40 1009.0
20260505202221 73 16 3.0 4.0 0.00 0.00 0.00 41 1008.7
20260505201718 73 29 2.0 4.0 0.00 0.00 0.00 39 1009.1
20260505201216 73 126 2.0 2.0 0.00 0.00 0.00 39 1009.0
20260505200714 74 329 5.0 6.0 0.00 0.00 0.00 40 1008.8
20260505200211 75 76 1.0 1.0 0.00 0.00 0.00 38 1008.7
20260505195706 75 174 3.0 3.0 0.00 0.00 0.00 38 1008.6
20260505195204 75 89 1.0 2.0 0.00 0.00 0.00 38 1009.0
20260505194701 75 337 7.0 9.0 0.00 0.00 0.00 38 1009.2
20260505194157 75 154 3.0 4.0 0.00 0.00 0.00 38 1009.0
20260505193653 74 250 2.0 3.0 0.00 0.00 0.00 37 1009.1
20260505193151 74 97 1.0 1.0 0.00 0.00 0.00 36 1009.1
20260505192649 75 82 2.0 2.0 0.00 0.00 0.00 36 1009.1
20260505192146 76 123 1.0 1.0 0.00 0.00 0.00 35 1009.2
20260505191645 76 271 2.0 2.0 0.00 0.00 0.00 34 1009.2
20260505191143 75 110 1.0 1.0 0.00 0.00 0.00 33 1009.1
20260505190638 74 68 3.0 6.0 0.00 0.00 0.00 33 1009.3
20260505190133 73 91 1.0 1.0 0.00 0.00 0.00 33 1009.3
20260505185630 74 158 2.0 3.0 0.00 0.00 0.00 33 1009.1
20260505185126 74 143 0.0 0.0 0.00 0.00 0.00 32 1008.8
20260505184623 73 177 1.0 1.0 0.00 0.00 0.00 33 1009.0
20260505184120 75 152 1.0 1.0 0.00 0.00 0.00 30 1009.3
20260505183616 75 106 2.0 2.0 0.00 0.00 0.00 29 1009.1
20260505183114 75 123 2.0 4.0 0.00 0.00 0.00 27 1009.1
20260505182610 75 147 5.0 7.0 0.00 0.00 0.00 29 1009.2
20260505182107 74 114 1.0 1.0 0.00 0.00 0.00 30 1009.2
20260505181604 74 98 1.0 2.0 0.00 0.00 0.00 29 1009.4
20260505181101 75 103 2.0 3.0 0.00 0.00 0.00 31 1009.3
20260505180556 76 134 0.0 0.0 0.00 0.00 0.00 32 1009.2
20260505180055 75 130 1.0 1.0 0.00 0.00 0.00 31 1009.1
20260505175550 75 124 0.0 1.0 0.00 0.00 0.00 32 1009.0
20260505175046 75 185 0.0 0.0 0.00 0.00 0.00 34 1009.1
20260505174544 74 134 0.0 0.0 0.00 0.00 0.00 35 1009.2
20260505174039 72 106 1.0 1.0 0.00 0.00 0.00 38 1009.2
20260505173536 71 75 1.0 2.0 0.00 0.00 0.00 42 1009.2
20260505173033 72 137 0.0 0.0 0.00 0.00 0.00 41 1009.1
20260505172531 73 128 0.0 0.0 0.00 0.00 0.00 42 1009.2
20260505172027 71 109 1.0 1.0 0.00 0.00 0.00 45 1009.3
20260505171522 70 150 0.0 1.0 0.00 0.00 0.00 48 1009.1
20260505171020 69 78 2.0 3.0 0.00 0.00 0.00 47 1009.3
20260505170516 69 118 0.0 0.0 0.00 0.00 0.00 48 1009.5
20260505170012 69 141 0.0 1.0 0.00 0.00 0.00 49 1009.2
20260505165508 66 220 1.0 2.0 0.00 0.00 0.00 53 1009.4
20260505165004 67 167 1.0 2.0 0.00 0.00 0.00 52 1009.2
20260505164500 67 137 1.0 1.0 0.00 0.00 0.00 51 1009.3
20260505163958 67 79 2.0 2.0 0.00 0.00 0.00 51 1009.4
20260505163456 65 118 0.0 0.0 0.00 0.00 0.00 54 1009.3
20260505162956 63 150 1.0 1.0 0.00 0.00 0.00 57 1009.3
20260505162451 63 153 1.0 1.0 0.00 0.00 0.00 58 1009.5
20260505161947 62 100 0.0 1.0 0.00 0.00 0.00 58 1009.4
20260505161439 63 142 0.0 1.0 0.00 0.00 0.00 59 1009.5
20260505160936 63 262 0.0 2.0 0.00 0.00 0.00 58 1009.5
20260505160435 60 118 0.0 0.0 0.00 0.00 0.00 63 1009.5
20260505152910 58 98 1.0 1.0 0.00 0.00 0.00 67 1009.7
20260505152402 57 132 0.0 0.0 0.00 0.00 0.00 69 1009.7
20260505151901 55 136 0.0 0.0 0.00 0.00 0.00 72 1009.8
20260505151358 54 137 0.0 0.0 0.00 0.00 0.00 76 1009.6
20260505150855 53 127 1.0 1.0 0.00 0.00 0.00 77 1009.4
20260505150352 52 133 1.0 1.0 0.00 0.00 0.00 80 1009.6
20260505140311 48 114 0.0 0.0 0.00 0.00 0.00 86 1009.1
20260505130234 41 119 0.0 0.0 0.00 0.00 0.00 95 1008.5
20260505124725 40 143 0.0 0.0 0.00 0.00 0.00 95 1008.2
20260505124222 40 143 0.0 0.0 0.00 0.00 0.00 95 1008.4
20260505123717 40 143 0.0 0.0 0.00 0.00 0.00 95 1008.5
20260505123214 40 143 0.0 0.0 0.00 0.00 0.00 95 1008.3
20260505122711 40 143 0.0 0.0 0.00 0.00 0.00 95 1008.4
20260505122208 40 143 0.0 0.0 0.00 0.00 0.00 95 1008.3
20260505121705 40 143 0.0 0.0 0.00 0.00 0.00 95 1008.1
20260505121201 41 111 0.0 0.0 0.00 0.00 0.00 95 1008.2
20260505120657 41 111 0.0 0.0 0.00 0.00 0.00 95 1008.3
20260505120153 41 113 0.0 0.0 0.00 0.00 0.00 95 1008.2
20260505115647 41 113 0.0 0.0 0.00 0.00 0.00 95 1007.9
20260505115145 41 113 0.0 0.0 0.00 0.00 0.00 95 1008.1
20260505114642 41 113 0.0 0.0 0.00 0.00 0.00 95 1008.2
20260505114138 41 113 0.0 0.0 0.00 0.00 0.00 95 1008.2
20260505113635 42 113 0.0 0.0 0.00 0.00 0.00 95 1008.3
20260505113131 42 113 0.0 0.0 0.00 0.00 0.00 95 1008.1
20260505112628 42 113 0.0 0.0 0.00 0.00 0.00 94 1008.3
20260505112126 42 113 0.0 0.0 0.00 0.00 0.00 94 1008.1
20260505111625 42 113 0.0 0.0 0.00 0.00 0.00 94 1008.0
20260505111122 41 111 0.0 0.0 0.00 0.00 0.00 94 1008.0
20260505110618 42 111 0.0 0.0 0.00 0.00 0.00 94 1008.0
20260505110115 42 111 0.0 0.0 0.00 0.00 0.00 94 1007.9
20260505102051 43 110 0.0 0.0 0.00 0.00 0.00 92 1007.4
20260505101549 43 110 0.0 0.0 0.00 0.00 0.00 91 1007.4
20260505101045 43 108 0.0 1.0 0.00 0.00 0.00 91 1007.3
20260505100542 44 106 0.0 0.0 0.00 0.00 0.00 91 1007.5
20260505100039 43 134 0.0 0.0 0.00 0.00 0.00 91 1007.5
20260505095535 44 145 0.0 0.0 0.00 0.00 0.00 90 1007.7
20260505095031 44 156 0.0 0.0 0.00 0.00 0.00 90 1007.7
20260505094528 44 118 0.0 0.0 0.00 0.00 0.00 91 1007.4
20260505094024 44 114 0.0 0.0 0.00 0.00 0.00 91 1007.2
20260505093521 44 113 0.0 0.0 0.00 0.00 0.00 91 1007.4
20260505093018 44 138 0.0 0.0 0.00 0.00 0.00 90 1007.3
20260505092516 44 141 0.0 0.0 0.00 0.00 0.00 90 1007.4
20260505092014 45 151 0.0 0.0 0.00 0.00 0.00 89 1007.3
20260505091511 45 159 0.0 0.0 0.00 0.00 0.00 89 1007.2
20260505091009 45 154 0.0 0.0 0.00 0.00 0.00 90 1007.3
20260505090506 45 120 0.0 0.0 0.00 0.00 0.00 90 1007.4
20260505090004 45 115 0.0 0.0 0.00 0.00 0.00 90 1007.3
20260505085502 45 115 0.0 0.0 0.00 0.00 0.00 90 1007.3
20260505085000 45 113 0.0 0.0 0.00 0.00 0.00 90 1007.2
20260505084458 45 116 0.0 0.0 0.00 0.00 0.00 90 1007.2
20260505083955 45 149 0.0 0.0 0.00 0.00 0.00 90 1007.2
20260505083452 46 151 0.0 0.0 0.00 0.00 0.00 90 1007.4
20260505082948 46 130 0.0 0.0 0.00 0.00 0.00 90 1007.4
20260505082444 46 130 0.0 0.0 0.00 0.00 0.00 90 1007.4
20260505081942 46 130 0.0 0.0 0.00 0.00 0.00 90 1007.3
20260505081438 46 130 0.0 0.0 0.00 0.00 0.00 90 1007.3
20260505080934 46 130 0.0 0.0 0.00 0.00 0.00 89 1007.3
20260505080431 46 130 0.0 0.0 0.00 0.00 0.00 89 1007.1
20260505075926 47 131 0.0 0.0 0.00 0.00 0.00 89 1007.2
20260505075423 47 131 0.0 0.0 0.00 0.00 0.00 89 1007.0
20260505074921 47 131 0.0 0.0 0.00 0.00 0.00 89 1007.2
20260505074418 47 130 0.0 0.0 0.00 0.00 0.00 89 1007.1
20260505073915 47 131 0.0 0.0 0.00 0.00 0.00 89 1007.3
20260505073413 47 131 0.0 0.0 0.00 0.00 0.00 88 1007.2
20260505072910 48 131 0.0 0.0 0.00 0.00 0.00 88 1007.2
20260505072406 47 131 0.0 0.0 0.00 0.00 0.00 87 1007.0
20260505071902 48 130 0.0 0.0 0.00 0.00 0.00 86 1007.1
20260505071358 48 130 0.0 0.0 0.00 0.00 0.00 85 1006.9
20260505070857 48 129 0.0 0.0 0.00 0.00 0.00 84 1007.0
20260505070353 49 120 0.0 0.0 0.00 0.00 0.00 84 1007.1
20260505065848 49 108 0.0 0.0 0.00 0.00 0.00 83 1006.9
20260505065345 49 114 0.0 0.0 0.00 0.00 0.00 83 1007.0
20260505064842 49 118 0.0 0.0 0.00 0.00 0.00 83 1006.9
20260505064339 50 147 0.0 0.0 0.00 0.00 0.00 82 1006.8
20260505063837 50 133 0.0 0.0 0.00 0.00 0.00 82 1006.7
20260505063333 50 118 0.0 0.0 0.00 0.00 0.00 81 1006.6
20260505062830 50 111 0.0 0.0 0.00 0.00 0.00 80 1006.7
20260505062327 51 93 0.0 0.0 0.00 0.00 0.00 79 1006.8
20260505061824 52 132 0.0 0.0 0.00 0.00 0.00 78 1006.6
20260505061322 52 150 0.0 1.0 0.00 0.00 0.00 78 1006.8
20260505060819 51 170 1.0 1.0 0.00 0.00 0.00 78 1006.8
20260505060316 52 143 1.0 1.0 0.00 0.00 0.00 78 1006.6
20260505055812 52 112 2.0 3.0 0.00 0.00 0.00 77 1006.5
20260505055308 53 157 0.0 1.0 0.00 0.00 0.00 75 1006.4
20260505054806 53 160 0.0 0.0 0.00 0.00 0.00 74 1006.6
20260505054303 53 166 1.0 1.0 0.00 0.00 0.00 73 1006.6
20260505053801 53 157 0.0 0.0 0.00 0.00 0.00 74 1006.8
20260505053258 53 155 0.0 0.0 0.00 0.00 0.00 75 1006.7
20260505052754 53 156 0.0 0.0 0.00 0.00 0.00 74 1006.6
20260505052252 54 161 0.0 0.0 0.00 0.00 0.00 74 1006.5
20260505051748 54 115 0.0 0.0 0.00 0.00 0.00 73 1006.5
20260505051246 54 114 0.0 0.0 0.00 0.00 0.00 72 1006.5
20260505050744 54 113 0.0 0.0 0.00 0.00 0.00 72 1006.5
20260505050242 55 121 0.0 0.0 0.00 0.00 0.00 71 1006.6
20260505041706 59 98 1.0 1.0 0.00 0.00 0.00 60 1006.1
20260505041204 59 59 0.0 0.0 0.00 0.00 0.00 61 1006.2
20260505040701 60 115 0.0 0.0 0.00 0.00 0.00 58 1006.4
20260505040158 61 136 0.0 0.0 0.00 0.00 0.00 56 1006.2
20260505035654 61 203 1.0 1.0 0.00 0.00 0.00 55 1006.2
20260505035150 62 194 2.0 2.0 0.00 0.00 0.00 54 1006.1
20260505034647 63 168 0.0 0.0 0.00 0.00 0.00 53 1006.0
20260505034144 64 116 0.0 0.0 0.00 0.00 0.00 50 1005.9
20260505033640 64 146 0.0 0.0 0.00 0.00 0.00 50 1005.9
20260505033139 65 114 0.0 0.0 0.00 0.00 0.00 47 1005.8
20260505032637 65 99 0.0 1.0 0.00 0.00 0.00 47 1005.8
20260505032133 65 67 1.0 2.0 0.00 0.00 0.00 46 1005.7
20260505031630 65 93 0.0 0.0 0.00 0.00 0.00 47 1005.7
20260505031126 65 115 0.0 0.0 0.00 0.00 0.00 47 1005.4
20260505030623 65 133 0.0 0.0 0.00 0.00 0.00 48 1005.5
20260505030119 66 103 1.0 1.0 0.00 0.00 0.00 47 1005.3
20260505025615 66 151 0.0 0.0 0.00 0.00 0.00 46 1005.3
20260505025114 67 149 0.0 0.0 0.00 0.00 0.00 45 1005.2
20260505024611 68 330 1.0 2.0 0.00 0.00 0.00 43 1005.3
20260505024108 68 37 1.0 2.0 0.00 0.00 0.00 41 1005.3
20260505023605 68 132 1.0 2.0 0.00 0.00 0.00 41 1004.9
20260505023103 68 152 2.0 2.0 0.00 0.00 0.00 41 1005.2
20260505022600 70 66 1.0 1.0 0.00 0.00 0.00 40 1004.9
20260505022057 70 5 3.0 4.0 0.00 0.00 0.00 39 1005.3
20260505021554 71 317 3.0 3.0 0.00 0.00 0.00 38 1005.2
20260505021050 71 278 1.0 1.0 0.00 0.00 0.00 38 1005.2
20260505020550 72 175 1.0 1.0 0.00 0.00 0.00 38 1004.9
20260505020048 73 297 4.0 4.0 0.00 0.00 0.00 36 1005.1
20260505015544 73 212 2.0 3.0 0.00 0.00 0.00 35 1005.3
20260505015041 74 300 3.0 3.0 0.00 0.00 0.00 34 1005.1
20260505014538 74 305 3.0 3.0 0.00 0.00 0.00 33 1005.1
20260505014035 74 289 4.0 6.0 0.00 0.00 0.00 31 1004.8
20260505013532 75 280 3.0 4.0 0.00 0.00 0.00 32 1005.3
20260505013030 75 329 3.0 3.0 0.00 0.00 0.00 31 1005.1
20260505012528 75 318 3.0 4.0 0.00 0.00 0.00 31 1005.2
20260505012024 76 207 2.0 3.0 0.00 0.00 0.00 31 1005.1
20260505011520 76 158 1.0 2.0 0.00 0.00 0.00 31 1005.3
20260505011017 76 347 6.0 8.0 0.00 0.00 0.00 28 1005.1
20260505010512 76 132 4.0 6.0 0.00 0.00 0.00 29 1005.2
20260505010009 77 292 5.0 7.0 0.00 0.00 0.00 28 1005.1
20260505005506 77 213 6.0 8.0 0.00 0.00 0.00 29 1004.9
20260505005004 77 324 4.0 4.0 0.00 0.00 0.00 28 1005.2
20260505004501 77 234 3.0 4.0 0.00 0.00 0.00 26 1005.2
20260505003957 77 289 7.0 8.0 0.00 0.00 0.00 26 1005.2
20260505003454 77 284 6.0 10.0 0.00 0.00 0.00 25 1005.1
20260505002950 77 214 4.0 6.0 0.00 0.00 0.00 27 1004.9
20260505002446 78 313 7.0 9.0 0.00 0.00 0.00 26 1005.1
20260505001945 78 293 4.0 7.0 0.00 0.00 0.00 27 1005.2
20260505001442 78 291 4.0 6.0 0.00 0.00 0.00 25 1004.9
20260505000939 78 279 5.0 6.0 0.00 0.00 0.00 27 1005.1
20260505000437 78 331 5.0 6.0 0.00 0.00 0.00 27 1005.1
20260504235934 78 328 6.0 8.0 0.00 0.00 0.00 27 1004.9
20260504235431 78 275 2.0 3.0 0.00 0.00 0.00 27 1004.8
20260504234927 78 303 6.0 7.0 0.00 0.00 0.00 26 1004.9
20260504234425 77 294 5.0 9.0 0.00 0.00 0.00 25 1004.9
20260504233921 77 353 5.0 6.0 0.00 0.00 0.00 26 1004.9
20260504233417 78 245 5.0 7.0 0.00 0.00 0.00 26 1005.2
20260504232914 78 7 4.0 6.0 0.00 0.00 0.00 27 1004.9
20260504232411 78 323 6.0 9.0 0.00 0.00 0.00 24 1005.1
20260504231908 77 267 6.0 8.0 0.00 0.00 0.00 25 1005.1
20260504231404 78 165 4.0 4.0 0.00 0.00 0.00 26 1005.1
20260504230901 78 339 4.0 6.0 0.00 0.00 0.00 25 1005.5
20260504230358 78 231 6.0 7.0 0.00 0.00 0.00 26 1005.2
20260504225857 78 129 4.0 4.0 0.00 0.00 0.00 27 1005.2
20260504225353 79 332 6.0 8.0 0.00 0.00 0.00 26 1005.2
20260504224850 78 154 2.0 3.0 0.00 0.00 0.00 26 1005.6
20260504224347 78 250 4.0 7.0 0.00 0.00 0.00 26 1005.3
20260504223844 79 287 6.0 8.0 0.00 0.00 0.00 25 1005.4
20260504223339 79 63 4.0 6.0 0.00 0.00 0.00 25 1005.4
20260504222836 78 190 5.0 7.0 0.00 0.00 0.00 27 1005.3
20260504222333 78 302 7.0 9.0 0.00 0.00 0.00 25 1005.3
20260504221831 78 324 5.0 6.0 0.00 0.00 0.00 25 1005.4
20260504221327 78 289 4.0 6.0 0.00 0.00 0.00 26 1005.5
20260504220825 78 288 5.0 7.0 0.00 0.00 0.00 24 1005.6
20260504220321 78 301 4.0 4.0 0.00 0.00 0.00 26 1005.6
20260504215819 78 280 9.0 11.0 0.00 0.00 0.00 26 1005.7
20260504215315 78 276 5.0 8.0 0.00 0.00 0.00 26 1005.8
20260504214811 78 340 4.0 4.0 0.00 0.00 0.00 25 1005.7
20260504214308 78 310 4.0 4.0 0.00 0.00 0.00 26 1005.8
20260504213805 78 286 10.0 14.0 0.00 0.00 0.00 23 1005.7
20260504213301 78 286 4.0 7.0 0.00 0.00 0.00 24 1005.7
20260504212758 78 319 4.0 4.0 0.00 0.00 0.00 27 1005.9
20260504212254 78 282 4.0 7.0 0.00 0.00 0.00 25 1005.8
20260504211752 78 285 4.0 6.0 0.00 0.00 0.00 26 1005.9
20260504211248 78 163 4.0 7.0 0.00 0.00 0.00 25 1005.8
20260504210746 78 321 9.0 14.0 0.00 0.00 0.00 27 1006.1
20260504210243 78 306 4.0 6.0 0.00 0.00 0.00 27 1006.0
20260504205739 79 303 3.0 6.0 0.00 0.00 0.00 26 1006.0
20260504205237 78 251 4.0 4.0 0.00 0.00 0.00 28 1005.9
20260504204735 78 29 4.0 6.0 0.00 0.00 0.00 29 1006.0